スキッフ彗星

C/1999 J2 ( Skiff )

English version
Home page
Updated on June 16, 2003

---------------------------------------------------------------------

・ プロフィール

発見日 1999年 5月13日
発見光度 16.0等
発見者 B. A. Skiff (LONEOS)

・ 写真集

・ 軌道要素

Epoch 2000 Apr. 6.0 TT = JDT 2451640.5
T 2000 Apr. 6.0025 TT                                   MPCN
q   7.109772             (2000.0)            P               Q
z  -0.000147       Peri.  127.1399      -0.4259805      -0.4829956
 +/-0.000001       Node    50.0426      -0.7116917      -0.3431878
e   1.001047       Incl.   86.4127      +0.5586015      -0.8055665
From 933 observations 1999 May 12-2002 June 9, mean residual 0".6.

・ 星図

・ 光度変化

        m1 = -10 + 5 logΔ + 25 log r

---------------------------------------------------------------------

軌道要素はMPCのEphemerides and Orbital Elementsに掲載されたものです。
星図は StellaNavigator Ver.2.0 for Windows (アストロアーツ 編著 / アスキー出版局刊) で作成したものです。
光度グラフはComet for Windowsで作成したものです。

---------------------------------------------------------------------

Copyright(C) Seiichi Yoshida (comet@aerith.net). All rights reserved.